Carlton, MN

3:10 AM CST on December 06, 2016 (GMT -0600)
Cloquet Carlton County

Weather History for KCOQ - April, 2014

Change the Weather History Date:

Sunday, April 13, 2014

  Actual Average Record
Temperature  
Mean Temperature 34 °F -  
Max Temperature 39 °F 45 °F 66 °F (2002)
Min Temperature 28 °F 28 °F 17 °F (2008)
Degree Days  
Heating Degree Days 30    
Moisture  
Dew Point 27 °F    
Average Humidity 79    
Maximum Humidity 100    
Minimum Humidity 60    
Precipitation  
Precipitation 0.00 in - - ()
Sea Level Pressure  
Sea Level Pressure 29.88 in    
Wind  
Wind Speed 9 mph (NNW)    
Max Wind Speed 23 mph    
Max Gust Speed 32 mph    
Visibility 7 miles    
Events Fog    
Averages and records for this station are not official NWS values.
T = Trace of Precipitation, MM = Missing Value Source: NWS Daily Summary

Daily Weather History Graph

Daily Weather History Graph

Search for Another Location

Airport or City:

Trip Planner

Search our weather history database for the weather conditions in past years. The results will help you decide how hot, cold, wet, or windy it might be!

Date:

Astronomy

Apr. 13, 2014 Rise Set
Actual Time 6:26 AM CDT 7:55 PM CDT
Civil Twilight 5:54 AM CDT 8:27 PM CDT
Nautical Twilight 5:16 AM CDT 9:05 PM CDT
Astronomical Twilight 4:35 AM CDT 9:46 PM CDT
Moon 6:29 PM CDT (4/13) 5:31 AM CDT (4/13)
Length of Visible Light 14h 32m
Length of Day
13h 29m
Waxing Gibbous, 97% of the Moon is Illuminated
Apr 13
Waxing Gibbous
Apr 15
Full
Apr 22
Last Quarter
Apr 29
New
May 6
First Quarter

Hourly Weather History & Observations

Time (CDT) Temp. Windchill Dew Point Humidity Pressure Visibility Wind Dir Wind Speed Gust Speed Precip Events Conditions
12:16 AM 33.8 °F 27.7 °F 32.0 °F 93% 29.78 in 0.8 mi East 6.9 mph - N/A   Overcast
12:37 AM 32.0 °F 24.2 °F 30.2 °F 93% 29.81 in 0.5 mi ESE 9.2 mph - N/A Fog Fog
12:57 AM 32.0 °F 25.6 °F 30.2 °F 93% 29.81 in 0.2 mi East 6.9 mph 16.1 mph N/A Fog Fog
1:16 AM 32.0 °F 26.4 °F 30.2 °F 93% 29.80 in 0.2 mi East 5.8 mph - N/A Fog Fog
1:37 AM 32.0 °F 27.5 °F 30.2 °F 93% 29.81 in 0.2 mi East 4.6 mph - N/A Fog Fog
1:57 AM 32.0 °F - 30.2 °F 93% 29.81 in 0.2 mi Calm Calm - N/A Fog Fog
2:16 AM 32.0 °F - 30.2 °F 93% 29.81 in 0.2 mi Calm Calm - N/A Fog Fog
2:37 AM 32.0 °F - 30.2 °F 93% 29.80 in 0.2 mi Calm Calm - N/A Fog Fog
2:57 AM 32.0 °F - 30.2 °F 93% 29.80 in 0.2 mi Calm Calm - N/A Fog Fog
3:16 AM 32.0 °F - 30.2 °F 93% 29.81 in 0.2 mi Calm Calm - N/A Fog Fog
3:36 AM 32.0 °F - 30.2 °F 93% 29.82 in 0.2 mi Calm Calm - N/A Fog Fog
3:57 AM 32.0 °F - 32.0 °F 100% 29.81 in 0.2 mi Calm Calm - N/A Fog Fog
4:16 AM 32.0 °F - 32.0 °F 100% 29.81 in 0.2 mi Calm Calm - N/A Fog Fog
4:37 AM 32.0 °F - 32.0 °F 100% 29.81 in 0.2 mi Calm Calm - N/A Fog Fog
4:57 AM 32.0 °F - 32.0 °F 100% 29.81 in 0.2 mi Calm Calm - N/A Fog Fog
5:16 AM 32.0 °F - 32.0 °F 100% 29.81 in 0.2 mi Calm Calm - N/A Fog Fog
5:37 AM 32.0 °F 27.5 °F 32.0 °F 100% 29.82 in 0.5 mi WNW 4.6 mph - N/A Fog Fog
5:57 AM 32.0 °F - 32.0 °F 100% 29.82 in 2.5 mi Calm Calm - N/A   Overcast
6:16 AM 33.8 °F - 32.0 °F 93% 29.82 in 3.0 mi Calm Calm - N/A   Overcast
6:37 AM 33.8 °F 29.6 °F 32.0 °F 93% 29.82 in 1.8 mi West 4.6 mph - N/A   Overcast
6:57 AM 33.8 °F 29.6 °F 32.0 °F 93% 29.83 in 1.5 mi West 4.6 mph - N/A   Overcast
7:16 AM 33.8 °F 28.6 °F 32.0 °F 93% 29.83 in 0.8 mi WNW 5.8 mph - N/A   Overcast
7:36 AM 33.8 °F 26.4 °F 33.8 °F 100% 29.83 in - WNW 9.2 mph - N/A   Unknown
7:57 AM 35.6 °F 26.2 °F 33.8 °F 93% 29.84 in 2.0 mi NW 15.0 mph - N/A   Overcast
8:16 AM 35.6 °F 27.1 °F 33.8 °F 93% 29.84 in 5.0 mi NW 12.7 mph 18.4 mph N/A   Overcast
8:36 AM 33.8 °F 23.9 °F 33.8 °F 100% 29.85 in 10.0 mi NW 15.0 mph 21.9 mph N/A   Overcast
8:57 AM 33.8 °F 24.3 °F 33.8 °F 100% 29.86 in 10.0 mi NW 13.8 mph 19.6 mph N/A   Overcast
9:16 AM 33.8 °F 25.8 °F 32.0 °F 93% 29.86 in 10.0 mi NW 10.4 mph 19.6 mph N/A   Overcast
9:36 AM 33.8 °F 23.2 °F 32.0 °F 93% 29.86 in 10.0 mi NW 17.3 mph 21.9 mph N/A   Overcast
9:57 AM 33.8 °F 23.2 °F 32.0 °F 93% 29.86 in 10.0 mi NW 17.3 mph - N/A   Overcast
10:36 AM 33.8 °F 24.8 °F 33.8 °F 100% 29.88 in 10.0 mi NW 12.7 mph 21.9 mph N/A   Overcast
10:57 AM 33.8 °F 25.8 °F 33.8 °F 100% 29.89 in 10.0 mi NW 10.4 mph 19.6 mph N/A   Overcast
11:17 AM 33.8 °F 23.2 °F 32.0 °F 93% 29.89 in 10.0 mi NW 17.3 mph 25.3 mph N/A   Overcast
11:36 AM 35.6 °F 24.8 °F 28.4 °F 75% 29.87 in 10.0 mi NW 19.6 mph 24.2 mph N/A   Overcast
11:57 AM 37.4 °F 27.8 °F 28.4 °F 70% 29.85 in 10.0 mi NW 17.3 mph 23.0 mph N/A   Overcast
12:17 PM 37.4 °F 27.8 °F 26.6 °F 65% 29.87 in 10.0 mi NNW 17.3 mph 29.9 mph N/A   Overcast
12:36 PM 39.2 °F 30.8 °F 28.4 °F 65% 29.87 in 10.0 mi NW 15.0 mph 21.9 mph N/A   Overcast
12:57 PM 39.2 °F 30.5 °F 26.6 °F 61% 29.89 in 10.0 mi NW 16.1 mph 27.6 mph N/A   Overcast
1:16 PM 37.4 °F 28.5 °F 26.6 °F 65% 29.91 in 10.0 mi NW 15.0 mph 21.9 mph N/A   Overcast
1:37 PM 37.4 °F 27.8 °F 26.6 °F 65% 29.91 in 10.0 mi NNW 17.3 mph 25.3 mph N/A   Mostly Cloudy
1:57 PM 37.4 °F 28.9 °F 26.6 °F 65% 29.93 in 10.0 mi NNW 13.8 mph 23.0 mph N/A   Mostly Cloudy
2:16 PM 37.4 °F 28.5 °F 26.6 °F 65% 29.94 in 10.0 mi NNW 15.0 mph 23.0 mph N/A   Overcast
2:37 PM 35.6 °F 26.2 °F 26.6 °F 70% 29.94 in 10.0 mi NW 15.0 mph - N/A   Overcast
2:56 PM 35.6 °F 27.1 °F 24.8 °F 65% 29.94 in 10.0 mi NW 12.7 mph 19.6 mph N/A   Overcast
3:16 PM 35.6 °F 25.9 °F 24.8 °F 65% 29.93 in 10.0 mi NW 16.1 mph 19.6 mph N/A   Overcast
3:37 PM 37.4 °F 27.5 °F 24.8 °F 60% 29.91 in 10.0 mi NNW 18.4 mph 24.2 mph N/A   Overcast
3:56 PM 37.4 °F 26.9 °F 24.8 °F 60% 29.90 in 10.0 mi NNW 20.7 mph 26.5 mph N/A   Mostly Cloudy
4:16 PM 37.4 °F 27.2 °F 24.8 °F 60% 29.90 in 10.0 mi NW 19.6 mph 25.3 mph N/A   Scattered Clouds
4:37 PM 37.4 °F 27.2 °F 24.8 °F 60% 29.89 in 10.0 mi NNW 19.6 mph 25.3 mph N/A   Scattered Clouds
4:56 PM 37.4 °F 26.9 °F 24.8 °F 60% 29.89 in 10.0 mi NNW 20.7 mph 28.8 mph N/A   Clear
5:17 PM 35.6 °F 25.9 °F 23.0 °F 60% 29.91 in 10.0 mi NNW 16.1 mph 24.2 mph N/A   Scattered Clouds
5:37 PM 35.6 °F 26.6 °F 23.0 °F 60% 29.92 in 10.0 mi NNW 13.8 mph 27.6 mph N/A   Clear
5:56 PM 33.8 °F 23.9 °F 21.2 °F 60% 29.93 in 10.0 mi North 15.0 mph 26.5 mph N/A   Clear
6:17 PM 33.8 °F 24.8 °F 23.0 °F 65% 29.93 in 10.0 mi North 12.7 mph 20.7 mph N/A   Scattered Clouds
6:37 PM 33.8 °F 22.5 °F 21.2 °F 60% 29.93 in 10.0 mi NNW 19.6 mph 25.3 mph N/A   Mostly Cloudy
6:56 PM 32.0 °F 21.6 °F 23.0 °F 69% 29.93 in 10.0 mi North 15.0 mph 21.9 mph N/A   Overcast
7:17 PM 32.0 °F 20.8 °F 23.0 °F 69% 29.93 in 10.0 mi NNW 17.3 mph 20.7 mph N/A   Overcast
7:36 PM 32.0 °F 20.8 °F 21.2 °F 64% 29.93 in 10.0 mi North 17.3 mph 25.3 mph N/A   Overcast
7:56 PM 32.0 °F 22.1 °F 21.2 °F 64% 29.93 in 10.0 mi NNW 13.8 mph 26.5 mph N/A   Overcast
8:17 PM 32.0 °F 21.2 °F 21.2 °F 64% 29.94 in 10.0 mi NNW 16.1 mph 20.7 mph N/A   Overcast
8:36 PM 32.0 °F 21.6 °F 21.2 °F 64% 29.94 in 10.0 mi NNW 15.0 mph 19.6 mph N/A   Overcast
8:56 PM 30.2 °F 18.1 °F 21.2 °F 69% 29.93 in 10.0 mi NNW 18.4 mph 29.9 mph N/A   Overcast
9:17 PM 30.2 °F 18.5 °F 21.2 °F 69% 29.93 in 10.0 mi NNW 17.3 mph 24.2 mph N/A   Overcast
9:36 PM 30.2 °F 18.1 °F 21.2 °F 69% 29.93 in 10.0 mi NNW 18.4 mph 25.3 mph N/A   Overcast
9:56 PM 30.2 °F 16.8 °F 21.2 °F 69% 29.93 in 10.0 mi North 23.0 mph 31.1 mph N/A   Overcast
10:17 PM 30.2 °F 18.9 °F 19.4 °F 64% 29.93 in 10.0 mi NNW 16.1 mph 28.8 mph N/A   Overcast
10:36 PM 30.2 °F 18.5 °F 19.4 °F 64% 29.93 in 10.0 mi NNW 17.3 mph 26.5 mph N/A   Overcast
10:57 PM 30.2 °F 18.1 °F 19.4 °F 64% 29.93 in 10.0 mi NNW 18.4 mph 26.5 mph N/A   Mostly Cloudy
11:17 PM 30.2 °F 18.1 °F 19.4 °F 64% 29.94 in 10.0 mi NNW 18.4 mph 28.8 mph N/A   Overcast
11:36 PM 30.2 °F 17.1 °F 19.4 °F 64% 29.95 in 10.0 mi NNW 21.9 mph 32.2 mph N/A   Overcast
11:57 PM 28.4 °F 16.2 °F 19.4 °F 69% 29.96 in 10.0 mi NNW 17.3 mph 24.2 mph N/A   Overcast